FW7035 Weather Reports


time (UTC)temp
C
wind
direction
speed
KPH
gust
KPH
rain 1hr
cm
rain 24hr
cm
rain mn
cm
humidity
%
barometer
mb
20260504100228 8 118 3.2 4.8 0.00 0.00 0.00 65 1013.7
20260504081622 6 77 3.2 3.2 0.00 0.00 0.00 79 1014.2
20260504081117 6 114 1.6 3.2 0.00 0.00 0.00 79 1014.2
20260504080614 6 108 3.2 3.2 0.00 0.00 0.00 79 1014.2
20260504080111 6 98 1.6 3.2 0.00 0.00 0.00 79 1014.3
20260504050427 6 63 0.0 3.2 0.00 0.00 0.00 68 1014.2
20260504045924 6 73 0.0 3.2 0.00 0.00 0.00 67 1014.3
20260504045420 6 105 1.6 3.2 0.00 0.00 0.00 66 1014.4
20260504044916 6 76 0.0 3.2 0.00 0.00 0.00 68 1014.4
20260504044414 6 80 1.6 3.2 0.00 0.00 0.00 68 1014.5
20260504043911 5 84 0.0 3.2 0.00 0.00 0.00 70 1014.3
20260504043408 5 76 0.0 3.2 0.00 0.00 0.00 72 1014.4
20260504042905 5 76 0.0 3.2 0.00 0.00 0.00 74 1014.6
20260504042402 5 84 0.0 3.2 0.00 0.00 0.00 74 1014.4
20260504041858 5 102 1.6 3.2 0.00 0.00 0.00 74 1014.4
20260504041354 5 115 1.6 3.2 0.00 0.00 0.00 75 1014.3
20260504040850 5 69 0.0 1.6 0.00 0.00 0.00 74 1014.5
20260504040348 5 101 1.6 3.2 0.00 0.00 0.00 74 1014.3
20260504035844 5 126 4.8 4.8 0.00 0.00 0.00 73 1014.3
20260504035342 5 116 4.8 4.8 0.00 0.00 0.00 73 1014.3
20260504034838 5 104 1.6 3.2 0.00 0.00 0.00 71 1014.2
20260504034336 5 130 0.0 3.2 0.00 0.00 0.00 72 1014.3
20260504033833 5 87 0.0 1.6 0.00 0.00 0.00 72 1014.0
20260504033331 5 117 1.6 3.2 0.00 0.00 0.00 71 1014.0
20260504032827 5 113 0.0 3.2 0.00 0.00 0.00 72 1013.8
20260504032324 5 89 0.0 1.6 0.00 0.00 0.00 71 1013.7
20260504031821 6 112 3.2 3.2 0.00 0.00 0.00 69 1013.9
20260504031318 6 86 3.2 3.2 0.00 0.00 0.00 68 1013.9
20260504030814 5 70 3.2 3.2 0.00 0.00 0.00 67 1013.8
20260504030312 6 139 3.2 3.2 0.00 0.00 0.00 68 1013.8
20260504025808 6 95 1.6 3.2 0.00 0.00 0.00 63 1013.9
20260504025305 6 94 1.6 3.2 0.00 0.00 0.00 63 1013.8
20260504024801 6 91 3.2 3.2 0.00 0.00 0.00 63 1013.7
20260504024258 6 104 0.0 3.2 0.00 0.00 0.00 61 1013.9
20260504023755 6 78 0.0 3.2 0.00 0.00 0.00 61 1013.7
20260504023251 6 74 1.6 3.2 0.00 0.00 0.00 62 1013.8
20260504022747 6 103 0.0 1.6 0.00 0.00 0.00 64 1014.0
20260504022244 6 108 3.2 4.8 0.00 0.00 0.00 63 1013.7
20260504021741 6 111 3.2 3.2 0.00 0.00 0.00 64 1013.8
20260504021238 6 113 3.2 3.2 0.00 0.00 0.00 62 1013.8
20260504020734 7 98 3.2 3.2 0.00 0.00 0.00 60 1013.7
20260504020232 7 114 3.2 3.2 0.00 0.00 0.00 61 1013.7
20260504015728 7 97 1.6 1.6 0.00 0.00 0.00 60 1013.7
20260504015224 7 95 3.2 3.2 0.00 0.00 0.00 58 1013.6
20260504014720 7 87 1.6 3.2 0.00 0.00 0.00 56 1013.7
20260504014217 7 99 0.0 1.6 0.00 0.00 0.00 58 1013.6
20260504013715 7 86 1.6 3.2 0.00 0.00 0.00 57 1013.6
20260504013212 8 151 1.6 3.2 0.00 0.00 0.00 57 1013.6
20260504012708 8 111 1.6 1.6 0.00 0.00 0.00 55 1013.7
20260504012207 8 108 1.6 3.2 0.00 0.00 0.00 54 1013.4
20260504011703 8 102 0.0 1.6 0.00 0.00 0.00 52 1013.4
20260504011200 9 99 1.6 3.2 0.00 0.00 0.00 51 1013.4
20260504010656 9 118 0.0 1.6 0.00 0.00 0.00 51 1013.3
20260504010151 9 139 0.0 1.6 0.00 0.00 0.00 50 1013.2
20260504005649 10 81 1.6 3.2 0.00 0.00 0.00 46 1013.5
20260504005145 10 91 1.6 1.6 0.00 0.00 0.00 49 1013.4
20260504004643 10 112 1.6 3.2 0.00 0.00 0.00 47 1013.3
20260504004140 11 137 3.2 3.2 0.00 0.00 0.00 47 1013.0
20260504003636 11 114 3.2 3.2 0.00 0.00 0.00 44 1013.0
20260504003133 11 95 1.6 3.2 0.00 0.00 0.00 40 1013.2
20260504002630 11 98 3.2 3.2 0.00 0.00 0.00 40 1013.0
20260504002128 14 255 0.0 3.2 0.00 0.00 0.00 31 1012.9
20260504001625 14 255 0.0 3.2 0.00 0.00 0.00 31 1013.0
20260504001120 14 255 0.0 3.2 0.00 0.00 0.00 31 1012.8
20260504000619 14 255 0.0 3.2 0.00 0.00 0.00 31 1012.8
20260504000116 14 255 0.0 3.2 0.00 0.00 0.00 31 1012.9
20260503235614 14 255 0.0 3.2 0.00 0.00 0.00 31 1012.9
20260503235110 14 255 0.0 3.2 0.00 0.00 0.00 31 1012.6
20260503234609 14 255 0.0 3.2 0.00 0.00 0.00 31 1012.5
20260503234106 15 189 1.6 3.2 0.00 0.00 0.00 31 1012.4
20260503233603 15 318 4.8 4.8 0.00 0.00 0.00 28 1012.6
20260503233058 15 318 4.8 4.8 0.00 0.00 0.00 28 1012.6
20260503232555 15 318 4.8 4.8 0.00 0.00 0.00 28 1012.5
20260503232053 15 318 4.8 4.8 0.00 0.00 0.00 28 1012.4
20260503231551 15 54 3.2 4.8 0.00 0.00 0.00 29 1012.2
20260503231047 15 188 1.6 9.7 0.00 0.00 0.00 28 1012.4
20260503230544 16 9 4.8 6.4 0.00 0.00 0.00 28 1012.3
20260503230042 16 52 3.2 4.8 0.00 0.00 0.00 28 1012.1
20260503225538 16 251 11.3 24.1 0.00 0.00 0.00 26 1012.6
20260503225033 16 307 11.3 16.1 0.00 0.00 0.00 27 1012.4
20260503224531 17 229 4.8 4.8 0.00 0.00 0.00 26 1012.6
20260503224029 17 255 3.2 11.3 0.00 0.00 0.00 26 1012.5
20260503223526 17 306 6.4 8.0 0.00 0.00 0.00 25 1012.5
20260503223022 17 83 3.2 4.8 0.00 0.00 0.00 26 1012.3
20260503222520 17 106 3.2 6.4 0.00 0.00 0.00 26 1012.5
20260503222018 17 341 3.2 9.7 0.00 0.00 0.00 27 1012.7
20260503221516 17 226 6.4 8.0 0.00 0.00 0.00 26 1012.3
20260503221013 17 348 0.0 3.2 0.00 0.00 0.00 26 1012.6
20260503220509 17 254 1.6 12.9 0.00 0.00 0.00 26 1012.5
20260503220006 16 55 1.6 9.7 0.00 0.00 0.00 26 1012.6
20260503215503 16 24 8.0 8.0 0.00 0.00 0.00 26 1012.6
20260503215000 16 292 11.3 17.7 0.00 0.00 0.00 26 1012.5
20260503214458 16 258 4.8 14.5 0.00 0.00 0.00 26 1012.7
20260503213955 16 57 11.3 17.7 0.00 0.00 0.00 25 1012.7
20260503213453 17 288 3.2 11.3 0.00 0.00 0.00 26 1012.6
20260503212949 16 249 16.1 22.5 0.00 0.00 0.00 25 1012.7
20260503212447 16 237 8.0 19.3 0.00 0.00 0.00 25 1012.5
20260503211944 16 283 4.8 12.9 0.00 0.00 0.00 27 1012.5
20260503211441 16 260 4.8 22.5 0.00 0.00 0.00 25 1012.4
20260503210936 16 247 9.7 16.1 0.00 0.00 0.00 25 1012.7
20260503210433 16 269 12.9 17.7 0.00 0.00 0.00 25 1012.3
20260503205928 16 159 4.8 14.5 0.00 0.00 0.00 25 1012.6
20260503205425 16 287 9.7 12.9 0.00 0.00 0.00 28 1012.6
20260503204921 16 271 8.0 9.7 0.00 0.00 0.00 27 1012.6
20260503204419 16 224 8.0 12.9 0.00 0.00 0.00 26 1012.6
20260503203916 16 219 3.2 17.7 0.00 0.00 0.00 28 1012.6
20260503203413 16 216 20.9 20.9 0.00 0.00 0.00 27 1012.6
20260503202910 16 288 8.0 11.3 0.00 0.00 0.00 27 1012.8
20260503202409 16 201 11.3 20.9 0.00 0.00 0.00 27 1012.7
20260503201907 16 253 3.2 14.5 0.00 0.00 0.00 27 1012.8
20260503201403 16 9 3.2 16.1 0.00 0.00 0.00 27 1012.7
20260503200901 16 259 6.4 25.7 0.00 0.00 0.00 26 1012.9
20260503200356 15 50 4.8 20.9 0.00 0.00 0.00 28 1013.1
20260503195854 15 65 6.4 17.7 0.00 0.00 0.00 29 1013.1
20260503195350 15 349 14.5 20.9 0.00 0.00 0.00 27 1013.5
20260503194848 15 226 11.3 17.7 0.00 0.00 0.00 29 1013.1
20260503194343 15 322 8.0 8.0 0.00 0.00 0.00 29 1013.4
20260503193840 15 236 4.8 8.0 0.00 0.00 0.00 30 1013.3
20260503193336 15 26 8.0 19.3 0.00 0.00 0.00 30 1013.6
20260503192832 15 268 16.1 22.5 0.00 0.00 0.00 29 1013.7
20260503192327 15 203 3.2 14.5 0.00 0.00 0.00 31 1013.5
20260503191824 15 167 3.2 4.8 0.00 0.00 0.00 31 1013.4
20260503191321 15 11 4.8 17.7 0.00 0.00 0.00 29 1013.6
20260503190818 15 251 4.8 14.5 0.00 0.00 0.00 29 1013.9
20260503190315 15 285 11.3 16.1 0.00 0.00 0.00 29 1013.7
20260503185812 15 266 11.3 19.3 0.00 0.00 0.00 31 1013.6
20260503185308 15 298 4.8 12.9 0.00 0.00 0.00 30 1013.9
20260503184807 14 296 4.8 14.5 0.00 0.00 0.00 33 1013.8
20260503184304 14 308 8.0 20.9 0.00 0.00 0.00 32 1013.9
20260503183800 15 335 12.9 24.1 0.00 0.00 0.00 30 1014.0
20260503183258 15 232 14.5 14.5 0.00 0.00 0.00 30 1014.0
20260503182755 15 67 3.2 6.4 0.00 0.00 0.00 33 1014.1
20260503182254 14 219 3.2 6.4 0.00 0.00 0.00 32 1014.0
20260503181750 14 243 8.0 11.3 0.00 0.00 0.00 31 1014.1
20260503181247 13 172 0.0 16.1 0.00 0.00 0.00 32 1014.3
20260503180743 13 285 3.2 17.7 0.00 0.00 0.00 35 1014.1
20260503180242 13 27 0.0 6.4 0.00 0.00 0.00 32 1014.1
20260503175738 13 14 3.2 17.7 0.00 0.00 0.00 32 1014.5
20260503175236 13 114 8.0 11.3 0.00 0.00 0.00 33 1014.6
20260503174732 12 255 4.8 11.3 0.00 0.00 0.00 35 1014.3
20260503174231 12 222 11.3 14.5 0.00 0.00 0.00 35 1014.5
20260503173730 13 46 6.4 9.7 0.00 0.00 0.00 35 1014.3
20260503173226 12 70 3.2 17.7 0.00 0.00 0.00 35 1014.5
20260503172724 12 75 3.2 9.7 0.00 0.00 0.00 34 1014.6
20260503172221 13 349 3.2 6.4 0.00 0.00 0.00 35 1014.5
20260503171717 12 103 4.8 12.9 0.00 0.00 0.00 33 1014.4
20260503171214 13 33 12.9 14.5 0.00 0.00 0.00 33 1014.6
20260503170711 12 218 8.0 22.5 0.00 0.00 0.00 34 1014.9
20260503170208 12 245 4.8 6.4 0.00 0.00 0.00 35 1014.9
20260503160130 11 93 1.6 11.3 0.00 0.00 0.00 38 1015.5
20260503150600 10 26 12.9 14.5 0.00 0.00 0.00 36 1015.5
20260503130949 8 49 0.0 8.0 0.00 0.00 0.00 47 1015.6
20260503130447 8 73 9.7 12.9 0.00 0.00 0.00 47 1015.6
20260503110338 4 286 6.4 8.0 0.00 0.00 0.00 65 1014.9